Погода в Тас-Юряхе

Россия / Республика Саха (Якутия)     61°47′21″N   113°00′57″E
темп.,
°C
ветер,
м/с
пор.,
м/с
влажн.,
%
обл.,
%
осадки,
мм/ч
давл.,
гПа
погр.,
м
27 февраля, сб
сб2700:00−27юв119997 0.1 102419
03:00−29юз2310099 0.1 102435
06:00−28зюз2498100 0.0 102591
09:00−28зюз2696100 0.0 1026158
12:00−24зюз4893100 0.0 1027460
15:00−23зюз5888100 0.0 1026719
18:00−25з3792100 0.0 1027272
21:00−30зюз239668 0.0 102925
28 февраля, вс
вс2800:00−32юз239726 0.0 103046
03:00−32юз369950 0.0 1030134
06:00−33юз389994 0.0 1031164
09:00−34юз369988 0.0 1032120
12:00−28зюз489383 0.0 1032431
15:00−25зюз478892 0.0 1031871
18:00−26зюз3791100 0.0 1033443
21:00−30юз2396100 0.0 103320
1 марта, пн
пн100:00−32юз229995 0.0 103319
03:00−33юз2210096 0.0 103319
06:00−34юз2210096 0.0 103320
09:00−35юз2210091 0.0 103319
12:00−29юз249577 0.0 1031276
15:00−26зюз238988 0.0 1030586
18:00−28з1293100 0.0 102919
21:00−33в019777 0.0 102919
2 марта, вт
вт200:00−35всв1110090 0.0 102819
03:00−36всв1110072 0.0 102719
06:00−37св1210070 0.0 102719
09:00−37св229967 0.0 102719
12:00−31св249579 0.0 1025265
15:00−27св359387 0.0 1024408
18:00−29св3694100 0.0 1025271
21:00−34св239880 0.0 102751
3 марта, ср
ср300:00−36ссв239990 0.0 102831
03:00−38ссв239981 0.0 102827
06:00−39ссв229962 0.0 102918
09:00−40с129869 0.0 103018
12:00−33с129181 0.0 1030282
15:00−29ссз228791 0.0 1029465
18:00−30сз2294100 0.0 103051
21:00−37сз129680 0.0 103119